Weather History for PAGY - July, 2013

Change the Weather History Date:

Tuesday, July 23, 2013

  Actual Average Record
Temperature  
Mean Temperature 64 °F -  
Max Temperature 75 °F 62 °F 81 °F (1990)
Min Temperature 55 °F 50 °F 39 °F (1988)
Degree Days  
Heating Degree Days 2    
Growing Degree Days 14 (Base 50)    
Moisture  
Dew Point 51 °F    
Average Humidity 65    
Maximum Humidity 90    
Minimum Humidity 44    
Precipitation  
Precipitation 0.00 in - - ()
Sea Level Pressure  
Sea Level Pressure 30.04 in    
Wind  
Wind Speed 2 mph (WSW)    
Max Wind Speed 20 mph    
Max Gust Speed 24 mph    
Visibility 10 miles    
Events Rain    
Averages and records for this station are not official NWS values.
T = Trace of Precipitation, MM = Missing Value Source: NWS Daily Summary

Daily Weather History Graph

Daily Weather History Graph

Search for Another Location

Airport or City:

Trip Planner

Search our weather history database for the weather conditions in past years. The results will help you decide how hot, cold, wet, or windy it might be!

Date:

Astronomy

Jul. 23, 2013 Rise Set
Actual Time 4:26 AM AKDT 9:47 PM AKDT
Civil Twilight 3:21 AM AKDT 10:51 PM AKDT
Nautical Twilight 1:40 AM AKDT 12:35 AM AKDT
Astronomical Twilight Sun does not set Sun does not set
Moon 9:31 PM AKDT (7/23) 6:22 AM AKDT (7/23)
Length of Visible Light 19h 30m
Length of Day
17h 20m
Full, 98% of the Moon is Illuminated
Jul 23
Full
Jul 29
Last Quarter
Aug 6
New
Aug 14
First Quarter
Aug 20
Full

Hourly Weather History & Observations

Time (AKDT) Temp. Dew Point Humidity Pressure Visibility Wind Dir Wind Speed Gust Speed Precip Events Conditions
12:53 AM 57.0 °F 53.1 °F 87% 30.08 in 10.0 mi Calm Calm - 0.00 in Rain Light Rain
1:53 AM 55.9 °F 53.1 °F 90% 30.08 in 10.0 mi Calm Calm - 0.00 in   Overcast
2:53 AM 55.0 °F 52.0 °F 89% 30.08 in 10.0 mi Calm Calm - N/A   Mostly Cloudy
3:53 AM 55.9 °F 53.1 °F 90% 30.08 in 10.0 mi Calm Calm - N/A   Overcast
4:53 AM 57.0 °F 53.1 °F 87% 30.07 in 10.0 mi NNE 4.6 mph - N/A   Overcast
5:53 AM 57.0 °F 53.1 °F 87% 30.08 in 10.0 mi NNE 4.6 mph - N/A   Overcast
6:53 AM 57.9 °F 54.0 °F 87% 30.07 in 10.0 mi Calm Calm - N/A   Overcast
7:53 AM 60.1 °F 54.0 °F 80% 30.07 in 10.0 mi Calm Calm - N/A   Overcast
8:53 AM 66.9 °F 51.1 °F 57% 30.06 in 10.0 mi Calm Calm - N/A   Overcast
9:53 AM 71.1 °F 51.1 °F 49% 30.06 in 10.0 mi Calm Calm - N/A   Overcast
10:53 AM 71.1 °F 48.0 °F 44% 30.05 in 10.0 mi North 5.8 mph - N/A   Overcast
11:53 AM 72.0 °F 48.9 °F 44% 30.04 in 10.0 mi NNE 3.5 mph - N/A   Overcast
12:53 PM 68.0 °F 46.9 °F 47% 30.04 in 10.0 mi Calm Calm - N/A   Overcast
1:53 PM 68.0 °F 46.9 °F 47% 30.02 in 10.0 mi SW 4.6 mph - N/A   Overcast
2:53 PM 66.9 °F 48.0 °F 51% 30.01 in 10.0 mi WSW 3.5 mph - N/A   Overcast
3:53 PM 66.9 °F 48.9 °F 52% 30.00 in 10.0 mi Calm Calm - 0.00 in Rain Light Rain
4:53 PM 71.1 °F 48.0 °F 44% 29.99 in 10.0 mi Calm Calm - 0.00 in   Mostly Cloudy
5:53 PM 71.1 °F 48.0 °F 44% 29.98 in 10.0 mi Calm Calm - N/A   Overcast
6:53 PM 69.1 °F 52.0 °F 54% 29.97 in 10.0 mi Calm Calm - N/A   Mostly Cloudy
7:53 PM 63.0 °F 50.0 °F 63% 29.98 in 10.0 mi WSW 5.8 mph - N/A   Scattered Clouds
8:53 PM 64.9 °F 51.1 °F 61% 30.00 in 10.0 mi WSW 9.2 mph 16.1 mph N/A   Partly Cloudy
9:53 PM 63.0 °F 51.1 °F 65% 30.02 in 10.0 mi SSW 3.5 mph - N/A   Clear
10:53 PM 63.0 °F 52.0 °F 67% 30.04 in 10.0 mi SSW 15.0 mph 24.2 mph N/A   Mostly Cloudy
11:53 PM 63.0 °F 52.0 °F 67% 30.06 in 10.0 mi SSW 19.6 mph - N/A   Mostly Cloudy